[[{"header":{"parameterUnit":"m.s-1","parameterCategory":1,"la1":30.2991,"la2":30.254,"lo1":-89.0895,"lo2":-89.0444,"dy":0.0017,"dx":0.0017,"nx":28,"ny":28,"refTime":"2024-11-22T03:00:00:Z","depth":0,"parameterNumber":2,"parameterNumberName":"U-component_of_WINDS"},"data":[0,0,0,0,0,0,0,0,0,0,0,0,0,0,0,0,0,0,0,0,0,0,0,0,0,0,0,0,0,0,0,0,0,0,0,0,0,0,0,0,0,0,0,0,0,0,0,0,0,0,0,0,0,0,0,0,0,0,-0.1057,-0.1056,0,-0.0996,-0.0995,-0.0994,-0.0956,-0.0956,-0.0956,-0.0956,-0.0893,-0.0892,-0.0891,0,0,0,0,0,0,0,0,0,0,0,0,0,-0.1143,-0.1141,-0.1057,-0.1056,-0.1056,-0.0996,-0.0995,-0.0994,-0.0956,-0.0956,-0.0956,-0.0956,-0.0894,-0.0892,-0.089,0,0,0,0,0,0,0,0,0,0,0,0,0,-0.1096,-0.1141,-0.1057,-0.103,-0.1026,-0.0996,-0.0995,-0.0994,-0.0956,-0.0956,-0.0956,-0.0956,-0.0895,-0.0892,-0.089,-0.0883,0,0,-0.0883,-0.0883,0,0,0,0,0,0,0,0,-0.1099,-0.1093,-0.1034,-0.1031,-0.1028,-0.0983,-0.1002,-0.0957,-0.0956,-0.0983,-0.0956,-0.0955,-0.0924,-0.0919,-0.0908,-0.088,-0.0877,-0.0883,-0.0882,-0.0881,-0.088,0,0,0,0,0,0,0,-0.1102,-0.1095,-0.1033,-0.1034,-0.103,-0.1021,-0.1014,-0.0993,-0.0956,-0.0981,-0.0978,-0.0971,-0.0922,-0.091,-0.0906,-0.0876,-0.0883,-0.0881,-0.088,-0.0879,-0.0839,-0.0839,0,0,0,0,0,0,-0.111,-0.1098,-0.1035,-0.1031,-0.1063,-0.1019,-0.1011,-0.0998,-0.0956,-0.0949,-0.0971,-0.0969,-0.0914,-0.0909,-0.0904,-0.0893,-0.0881,-0.0879,-0.0878,-0.0839,-0.0839,-0.0839,0,0,0,0,0,0,-0.1111,-0.1104,-0.1037,-0.1064,-0.1055,-0.1018,-0.1003,-0.0997,-0.0985,-0.0949,-0.0942,-0.0967,-0.0914,-0.0907,-0.0888,-0.089,-0.0878,-0.0876,-0.0838,-0.0839,-0.0839,-0.087,0,0,0,0,0,0,-0.1114,-0.1105,-0.1102,-0.1064,-0.1053,-0.1022,-0.1003,-0.0996,-0.0982,-0.0979,-0.0943,-0.0936,-0.0913,-0.0892,-0.0886,-0.0887,-0.0874,-0.0838,-0.0839,-0.0839,-0.0869,-0.0871,-0.0874,0,0,0,0,0,-0.1117,-0.1113,-0.1102,-0.1094,-0.1048,-0.1022,-0.1016,-0.099,-0.0982,-0.0978,-0.0955,-0.0937,-0.0891,-0.089,-0.0884,-0.0884,-0.0838,-0.0839,-0.0839,-0.0868,-0.0871,-0.0874,0,0,0,0,0,0,-0.1152,-0.1107,-0.1094,-0.1078,-0.1054,-0.1016,-0.1011,-0.0994,-0.0972,-0.097,-0.0938,-0.0931,-0.0915,-0.0897,-0.0897,-0.0874,-0.0862,-0.0862,-0.0886,-0.0889,-0.0892,-0.0896,-0.0872,0,0,0,0,0,-0.1157,-0.114,-0.1102,-0.1091,-0.108,-0.1047,-0.1035,-0.1017,-0.0991,-0.0981,-0.0956,-0.0932,-0.0912,-0.09,-0.0879,-0.0866,-0.0858,-0.0863,-0.0865,-0.0868,-0.0867,-0.086,-0.0861,-0.0841,-0.0841,-0.0841,0,0,-0.1169,-0.1142,-0.1133,-0.1097,-0.1077,-0.106,-0.1039,-0.1022,-0.1009,-0.0979,-0.0959,-0.094,-0.0912,-0.0896,-0.0887,-0.088,-0.0871,-0.0868,-0.087,-0.0869,-0.086,-0.0862,-0.0864,-0.0842,-0.0842,-0.0842,0,0,-0.1181,-0.1159,-0.1147,-0.1127,-0.1097,-0.1075,-0.1073,-0.1037,-0.1024,-0.1004,-0.098,-0.0965,-0.0931,-0.0912,-0.0897,-0.0903,-0.0886,-0.0897,-0.091,-0.0903,-0.0905,-0.0906,-0.0908,-0.0909,-0.0897,-0.0897,-0.0897,0,-0.1199,-0.1172,-0.1144,-0.1128,-0.1113,-0.1084,-0.1073,-0.1055,-0.1019,-0.101,-0.1002,-0.096,-0.0938,-0.0918,-0.0919,-0.0908,-0.0904,-0.0901,-0.0907,-0.0908,-0.0908,-0.091,-0.0911,-0.0899,-0.0898,-0.0898,-0.0898,0,-0.1196,-0.1178,-0.1172,-0.1139,-0.1123,-0.111,-0.1079,-0.1067,-0.105,-0.103,-0.101,-0.0984,-0.0958,-0.0951,-0.0934,-0.0928,-0.0925,-0.0913,-0.09,-0.0912,-0.0914,-0.0914,-0.0901,-0.09,-0.09,-0.0899,0,0,-0.1228,-0.1179,-0.1177,-0.1162,-0.1126,-0.1112,-0.1097,-0.1072,-0.1062,-0.1039,-0.1026,-0.0998,-0.0987,-0.097,-0.0951,-0.0945,-0.0952,-0.0933,-0.0932,-0.0938,-0.0943,-0.0953,-0.0954,-0.094,-0.094,-0.094,-0.0946,0,-0.1235,-0.1207,-0.1181,-0.1163,-0.1146,-0.1119,-0.1106,-0.1083,-0.1064,-0.1047,-0.1026,-0.1007,-0.0993,-0.0983,-0.0975,-0.0952,-0.0952,-0.0952,-0.0928,-0.0928,-0.0936,-0.0955,-0.0965,-0.0971,-0.0946,-0.0946,-0.0946,0,-0.1239,-0.1217,-0.1197,-0.1163,-0.1155,-0.1144,-0.1119,-0.1103,-0.1077,-0.1063,-0.1046,-0.1026,-0.1009,-0.0999,-0.0976,-0.0976,-0.0965,-0.0953,-0.0952,-0.0949,-0.0938,-0.0952,-0.0973,-0.0974,-0.0947,-0.0947,-0.0947,0,-0.1265,-0.123,-0.1213,-0.1201,-0.1161,-0.1154,-0.1138,-0.1111,-0.1097,-0.1075,-0.1066,-0.1043,-0.103,-0.1013,-0.0987,-0.0981,-0.0967,-0.0954,-0.0956,-0.0956,-0.0954,-0.0954,-0.0973,-0.0947,-0.0947,-0.0947,-0.0947,0,-0.1275,-0.1264,-0.1224,-0.1214,-0.1201,-0.1172,-0.116,-0.1141,-0.1117,-0.1103,-0.1079,-0.1066,-0.1033,-0.1016,-0.0996,-0.0981,-0.0975,-0.0964,-0.0959,-0.0966,-0.0968,-0.0959,-0.0958,-0.0947,-0.0947,-0.0947,-0.0947,0,-0.1302,-0.1274,-0.1255,-0.1219,-0.121,-0.1202,-0.1171,-0.1161,-0.114,-0.1123,-0.1117,-0.1085,-0.1064,-0.1037,-0.1008,-0.0994,-0.0982,-0.0973,-0.0991,-0.0988,-0.0991,-0.0991,-0.1004,-0.1005,-0.0978,-0.0979,-0.0979,0,-0.131,-0.1301,-0.1264,-0.1253,-0.1237,-0.1219,-0.1205,-0.1177,-0.1163,-0.1133,-0.1126,-0.1104,-0.1084,-0.1053,-0.1027,-0.1005,-0.0996,-0.1002,-0.0992,-0.1,-0.0996,-0.0997,-0.0996,-0.1004,-0.1005,-0.1005,-0.1005,0,-0.1328,-0.1316,-0.1296,-0.1273,-0.1257,-0.1236,-0.1215,-0.1208,-0.1174,-0.1161,-0.1139,-0.1124,-0.1095,-0.1073,-0.1047,-0.103,-0.1013,-0.1009,-0.1008,-0.1016,-0.1026,-0.1021,-0.0997,-0.1009,-0.1008,-0.1008,-0.1008,-0.1008,-0.1346,-0.1337,-0.131,-0.1289,-0.127,-0.1251,-0.124,-0.1218,-0.1199,-0.1173,-0.1157,-0.1137,-0.1111,-0.1075,-0.1059,-0.1042,-0.1035,-0.1034,-0.1034,-0.1034,-0.1037,-0.1029,-0.1038,-0.1038,-0.1037,-0.1037,-0.1037,0,-0.1363,-0.1345,-0.1326,-0.1297,-0.1281,-0.1266,-0.1242,-0.123,-0.1212,-0.1189,-0.1171,-0.1146,-0.1125,-0.1098,-0.1075,-0.1067,-0.1059,-0.1062,-0.1063,-0.1059,-0.1044,-0.1047,-0.107,-0.107,-0.107,-0.107,-0.107,-0.107,-0.1371,-0.1354,-0.1338,-0.1312,-0.1294,-0.1273,-0.1261,-0.1243,-0.1225,-0.1199,-0.1182,-0.1164,-0.114,-0.1115,-0.1095,-0.1087,-0.108,-0.1086,-0.1076,-0.1063,-0.106,-0.1057,-0.106,-0.1085,-0.1085,-0.1093,-0.1093,-0.1093]},{"header":{"parameterUnit":"m.s-1","parameterCategory":1,"la1":30.2991,"la2":30.254,"lo1":-89.0895,"lo2":-89.0444,"dy":0.0017,"dx":0.0017,"nx":28,"ny":28,"refTime":"2024-11-22T03:00:00:Z","depth":0,"parameterNumber":3,"parameterNumberName":"V-component_of_WINDS"},"data":[0,0,0,0,0,0,0,0,0,0,0,0,0,0,0,0,0,0,0,0,0,0,0,0,0,0,0,0,0,0,0,0,0,0,0,0,0,0,0,0,0,0,0,0,0,0,0,0,0,0,0,0,0,0,0,0,0,0,1.8932,1.8931,0,1.8878,1.8877,1.8876,1.8804,1.8803,1.8801,1.88,1.8746,1.8746,1.8745,0,0,0,0,0,0,0,0,0,0,0,0,0,1.8971,1.8971,1.8932,1.8931,1.893,1.8878,1.8877,1.8876,1.8804,1.8802,1.8801,1.88,1.8746,1.8746,1.8745,0,0,0,0,0,0,0,0,0,0,0,0,0,1.8939,1.8971,1.8932,1.8888,1.8883,1.8878,1.8877,1.8876,1.8804,1.8802,1.8801,1.8799,1.8746,1.8746,1.8745,1.8779,0,0,1.8744,1.8744,0,0,0,0,0,0,0,0,1.8941,1.8938,1.8895,1.8891,1.8886,1.8845,1.8871,1.8843,1.8805,1.8834,1.88,1.8798,1.8781,1.8777,1.8771,1.8776,1.8774,1.8744,1.8743,1.8743,1.8743,0,0,0,0,0,0,0,1.8944,1.894,1.891,1.8894,1.8889,1.8871,1.8864,1.8865,1.8818,1.8832,1.8826,1.8821,1.8778,1.8772,1.8769,1.8773,1.8744,1.8743,1.8743,1.8743,1.88,1.8802,0,0,0,0,0,0,1.8952,1.8942,1.8912,1.8909,1.891,1.8871,1.8864,1.886,1.8818,1.881,1.8822,1.8818,1.8773,1.877,1.8767,1.8802,1.8743,1.8743,1.8742,1.8798,1.8801,1.8802,0,0,0,0,0,0,1.8954,1.895,1.8914,1.8924,1.8918,1.8873,1.8869,1.886,1.8854,1.8811,1.8802,1.8825,1.8772,1.8768,1.8776,1.8799,1.8743,1.8742,1.8796,1.8799,1.8801,1.8873,0,0,0,0,0,0,1.8955,1.8951,1.8964,1.8925,1.8918,1.8924,1.887,1.886,1.8853,1.8847,1.8811,1.8804,1.877,1.8777,1.8775,1.8797,1.8742,1.8794,1.8797,1.8801,1.8868,1.8878,1.8886,0,0,0,0,0,1.8957,1.8987,1.8965,1.8962,1.8932,1.8926,1.8922,1.8882,1.8856,1.8867,1.8839,1.8805,1.8797,1.8778,1.8776,1.8798,1.8792,1.8796,1.88,1.8864,1.8876,1.8886,0,0,0,0,0,0,1.9031,1.8981,1.8956,1.8975,1.8955,1.8913,1.8928,1.8896,1.8884,1.8878,1.883,1.8822,1.8836,1.8818,1.8798,1.8827,1.8789,1.8793,1.8839,1.8849,1.8858,1.8862,1.8741,0,0,0,0,0,1.9049,1.9048,1.9004,1.9025,1.9016,1.8974,1.8969,1.894,1.8918,1.891,1.8882,1.8862,1.8854,1.8851,1.8842,1.8865,1.8856,1.8879,1.8888,1.8895,1.8899,1.8908,1.8918,1.8816,1.8816,1.8816,0,0,1.9087,1.906,1.9062,1.9039,1.902,1.9019,1.8967,1.8969,1.8968,1.891,1.8915,1.8894,1.8868,1.8884,1.8889,1.8869,1.8925,1.8901,1.8907,1.8907,1.8913,1.8923,1.8932,1.8819,1.8818,1.8818,0,0,1.9156,1.9136,1.915,1.9132,1.9103,1.9075,1.9078,1.9041,1.9025,1.9029,1.8985,1.8983,1.8972,1.8954,1.8944,1.9004,1.8971,1.9003,1.9049,1.9058,1.9066,1.9073,1.9093,1.9101,1.9007,1.9007,1.9007,0,1.9207,1.9204,1.9161,1.9165,1.9155,1.9102,1.9115,1.91,1.9071,1.9065,1.9043,1.9026,1.9005,1.9014,1.9029,1.9023,1.9024,1.9007,1.9068,1.9075,1.9081,1.9099,1.9107,1.9011,1.901,1.901,1.9009,0,1.9268,1.9266,1.9281,1.9253,1.9245,1.9254,1.9211,1.9208,1.918,1.9153,1.9157,1.913,1.9113,1.9113,1.9086,1.9119,1.9107,1.9077,1.9038,1.9095,1.9112,1.9119,1.9016,1.9015,1.9014,1.9013,0,0,1.9383,1.933,1.9336,1.9321,1.9286,1.9284,1.9289,1.9272,1.927,1.9252,1.9254,1.9245,1.9217,1.9205,1.9175,1.9183,1.9231,1.9152,1.9151,1.9167,1.9263,1.9285,1.9295,1.9208,1.921,1.9211,1.9265,0,1.9445,1.9451,1.9412,1.9429,1.9426,1.9374,1.9379,1.9357,1.9332,1.9325,1.9297,1.9291,1.9255,1.9247,1.9253,1.9224,1.9249,1.9219,1.921,1.921,1.9218,1.9303,1.9327,1.938,1.9271,1.9272,1.9273,0,1.9518,1.9502,1.9519,1.948,1.9478,1.9483,1.9463,1.9458,1.9431,1.9412,1.9398,1.9363,1.9365,1.9327,1.9329,1.9309,1.9302,1.9287,1.9288,1.9286,1.9245,1.9303,1.9396,1.9404,1.9283,1.9283,1.9282,0,1.9599,1.9582,1.9589,1.9579,1.9534,1.9539,1.952,1.9492,1.9484,1.9467,1.9461,1.9444,1.9435,1.9423,1.9383,1.936,1.9389,1.9348,1.9372,1.9373,1.9381,1.9381,1.9474,1.9378,1.9377,1.9377,1.9377,0,1.9672,1.9684,1.9625,1.9629,1.9641,1.9594,1.9607,1.9583,1.9558,1.9556,1.951,1.951,1.9458,1.9451,1.9421,1.9425,1.9422,1.9406,1.9397,1.941,1.9412,1.9405,1.94,1.9379,1.9379,1.9378,1.9378,0,1.9765,1.9726,1.973,1.9687,1.9676,1.9687,1.9649,1.9651,1.9622,1.9621,1.9618,1.9573,1.9562,1.9521,1.9502,1.948,1.9495,1.9479,1.9504,1.9498,1.9524,1.9522,1.9616,1.9625,1.9524,1.9525,1.9526,0,1.9814,1.9822,1.9779,1.9775,1.9758,1.9752,1.9742,1.9696,1.9689,1.9658,1.9663,1.9649,1.9635,1.962,1.9585,1.9569,1.9552,1.9586,1.955,1.9561,1.9551,1.9551,1.9551,1.9594,1.9596,1.9597,1.9597,0,1.9905,1.9884,1.9873,1.9855,1.9845,1.9829,1.9809,1.9808,1.9757,1.975,1.9738,1.9728,1.9706,1.9692,1.967,1.965,1.9615,1.9609,1.9613,1.9626,1.964,1.9632,1.9525,1.9607,1.9606,1.9606,1.9605,1.9605,1.9977,1.998,1.995,1.9939,1.9919,1.9902,1.9901,1.9871,1.9861,1.9839,1.9813,1.9804,1.9775,1.9741,1.9724,1.9716,1.9697,1.9704,1.9705,1.9707,1.9713,1.9641,1.9712,1.9711,1.9711,1.9711,1.9711,0,2.0064,2.0042,2.0032,2.0005,1.9996,1.9963,1.994,1.9934,1.9927,1.9903,1.9889,1.9875,1.986,1.9824,1.9805,1.9806,1.9789,1.9802,1.9802,1.9797,1.9732,1.9729,1.9816,1.9816,1.9816,1.9816,1.9816,1.9816,2.0109,2.0113,2.0089,2.0082,2.0059,2.005,2.0039,2.0023,2.0003,1.9989,1.9976,1.9952,1.9922,1.9901,1.9886,1.9875,1.987,1.9889,1.9873,1.9812,1.9802,1.9793,1.979,1.9888,1.9888,1.9939,1.994,1.994]}]]